Homer, AK

4:13 PM AKDT on June 22, 2017 (GMT -0800)
Homer

Weather History for PAHO - October, 2010

Change the Weather History Date:

Saturday, October 16, 2010

  Actual Average Record
Temperature  
Mean Temperature 36 °F -  
Max Temperature 46 °F 45 °F 58 °F (1969)
Min Temperature 28 °F 32 °F 17 °F (1996)
Degree Days  
Heating Degree Days 28    
Moisture  
Dew Point 32 °F    
Average Humidity 78    
Maximum Humidity 92    
Minimum Humidity 60    
Precipitation  
Precipitation 0.00 in - - ()
Sea Level Pressure  
Sea Level Pressure 29.46 in    
Wind  
Wind Speed 4 mph (East)    
Max Wind Speed 16 mph    
Max Gust Speed 22 mph    
Visibility 10 miles    
Events      
Averages and records for this station are not official NWS values.
T = Trace of Precipitation, MM = Missing Value Source: NWS Daily Summary

Daily Weather History Graph

Daily Weather History Graph

Search for Another Location

Airport or City:

Trip Planner

Search our weather history database for the weather conditions in past years. The results will help you decide how hot, cold, wet, or windy it might be!

Date:

Astronomy

Oct. 16, 2010 Rise Set
Actual Time 8:47 AM AKDT 6:54 PM AKDT
Civil Twilight 8:05 AM AKDT 7:36 PM AKDT
Nautical Twilight 7:17 AM AKDT 8:23 PM AKDT
Astronomical Twilight 6:29 AM AKDT 9:11 PM AKDT
Moon 5:08 PM AKDT (10/16) 1:20 AM AKDT (10/16)
Length of Visible Light 11h 30m
Length of Day
10h 06m
Waxing Gibbous, 68% of the Moon is Illuminated
Oct 16
Waxing Gibbous
Oct 22
Full
Oct 30
Last Quarter
Nov 5
New
Nov 13
First Quarter

Hourly Weather History & Observations

Time (AKDT) Temp. Windchill Dew Point Humidity Pressure Visibility Wind Dir Wind Speed Gust Speed Precip Events Conditions
12:53 AM 30.0 °F 26.5 °F 26.1 °F 85% 29.73 in 10.0 mi ENE 3.5 mph - N/A   Clear
1:53 AM 30.0 °F 25.2 °F 26.1 °F 85% 29.71 in 10.0 mi NE 4.6 mph - N/A   Clear
2:53 AM 28.9 °F 23.9 °F 26.1 °F 89% 29.68 in 10.0 mi NE 4.6 mph - N/A   Clear
3:53 AM 32.0 °F 27.5 °F 28.0 °F 85% 29.65 in 10.0 mi NE 4.6 mph - N/A   Clear
4:53 AM 32.0 °F 28.7 °F 28.0 °F 85% 29.63 in 10.0 mi NNE 3.5 mph - N/A   Overcast
6:53 AM 34.0 °F - 30.9 °F 89% 29.58 in 10.0 mi Calm Calm - N/A   Overcast
7:53 AM 33.1 °F 30.0 °F 30.0 °F 89% 29.56 in 10.0 mi NNE 3.5 mph - N/A   Overcast
8:53 AM 35.1 °F - 32.0 °F 89% 29.53 in 10.0 mi Calm Calm - N/A   Overcast
9:53 AM 35.1 °F - 33.1 °F 92% 29.52 in 10.0 mi Calm Calm - N/A   Overcast
10:53 AM 37.9 °F - 34.0 °F 86% 29.50 in 10.0 mi Calm Calm - N/A   Mostly Cloudy
11:53 AM 37.9 °F - 35.1 °F 89% 29.47 in 10.0 mi Calm Calm - N/A   Overcast
12:53 PM 43.0 °F 41.3 °F 34.0 °F 71% 29.45 in 10.0 mi East 3.5 mph - N/A   Mostly Cloudy
1:53 PM 44.1 °F - 35.1 °F 71% 29.44 in 10.0 mi Calm Calm - N/A   Overcast
2:53 PM 44.1 °F 42.5 °F 36.0 °F 73% 29.42 in 10.0 mi SE 3.5 mph - N/A   Overcast
3:53 PM 42.1 °F 39.2 °F 36.0 °F 79% 29.39 in 10.0 mi ESE 4.6 mph - N/A   Mostly Cloudy
4:53 PM 42.1 °F - 35.1 °F 76% 29.36 in 10.0 mi Calm Calm - N/A   Mostly Cloudy
5:53 PM 43.0 °F - 35.1 °F 74% 29.33 in 10.0 mi Calm Calm - N/A   Mostly Cloudy
6:53 PM 44.1 °F 39.0 °F 33.1 °F 65% 29.31 in 10.0 mi East 9.2 mph - N/A   Overcast
7:53 PM 45.0 °F 38.9 °F 33.1 °F 63% 29.30 in 10.0 mi East 12.7 mph - N/A   Overcast
8:53 PM 45.0 °F 37.9 °F 32.0 °F 60% 29.29 in 10.0 mi East 16.1 mph 21.9 mph N/A   Overcast
9:53 PM 45.0 °F 39.3 °F 33.1 °F 63% 29.28 in 10.0 mi ESE 11.5 mph - N/A   Overcast
10:53 PM 44.1 °F 41.5 °F 34.0 °F 68% 29.28 in 10.0 mi SSE 4.6 mph - N/A   Overcast
11:53 PM 45.0 °F 40.6 °F 34.0 °F 65% 29.27 in 10.0 mi East 8.1 mph - N/A   Overcast